Погода в Коти

Япония     33°33′25″N   133°31′36″E
темп.,
°C
ветер,
м/с
пор.,
м/с
влажн.,
%
обл.,
%
осадки,
мм/ч
давл.,
гПа
погр.,
м
15 апреля, чт
чт1500:00+9ссз36721 0.0 1017331
03:00+7ссз35653 0.0 1018158
06:00+6ссз3458100 0.0 1019126
09:00+12ссз1236100 0.0 1020488
12:00+14ю4237100 0.0 1019711
15:00+14ю224433 0.0 1019818
18:00+13зюз125263 0.0 1021271
21:00+12с1153100 0.0 102282
16 апреля, пт
пт1600:00+11с1167100 0.3 1021108
03:00+12ссв2382100 0.8 1021103
06:00+14в369197 1.9 1021366
09:00+14в4796100 6.6 1020494
12:00+17вюв458311 2.4 1020561
15:00+18юв347394 2.6 1020685
18:00+16в2490100 0.4 1020199
21:00+15всв2596100 5.6 1021394
17 апреля, сб
сб1700:00+15всв2396100 7.0 1020211
03:00+16вюв2593100 10.6 1018176
06:00+15всв1294100 1.1 101762
09:00+15юв1192100 3.6 101778
12:00+15ссз1188100 2.1 1016262
15:00+15ююз1191100 3.3 1012258
18:00+15ююз119344 0.1 1012169
21:00+14ссз1194100 0.2 101258
18 апреля, вс
вс1800:00+11зсз51075100 0.2 1012510
03:00+9зсз46730 0.2 1012235
06:00+8зсз35704 0.0 1012213
09:00+13зсз59485 0.0 10131604
12:00+15зсз611425 0.0 10122000
15:00+16зсз710435 0.0 10112005
18:00+14зсз45500 0.0 1013664
21:00+10сз35670 0.0 1016122
19 апреля, пн
пн1900:00+9ссз23690 0.0 1016104
03:00+8ссз33680 0.0 101694
06:00+8сз22660 0.0 101785
09:00+14зюз12470 0.0 1016511
12:00+17ю43461 0.0 1015887
15:00+17ююв43494 0.0 1014716
18:00+15в23580 0.0 1014290
21:00+12с22670 0.0 101782